CSG-2

Last updated on Mon Sep 21 2026 00:02:46 GMT+0000 (Coordinated Universal Time)

1 51444U 22008A 26263.61253522 .00000636 00000+0 86422-4 0 9995 2 51444 97.8918 85.8516 0001420 81.6052 278.5322 14.82156628250722
UTC large
Height (km)
Speed (km/s)
/
Latitude / Longitude
Inclination (degrees)
Orbital Period (minutes)
Azimuth
Elevation
Range (km)
Doppler Factor

Next 0 passes for location: London (51.5072 / 0.1276)

No passes found over London.
CSG-2